Regional Weather Roundup
Issued by NWS

Home | Current Version | Previous Version | Text Only | Print | Product List | Glossary Off
Versions: 1 2 3 4 5 6 7 8 9 10 11 12 13 14 15 16 17 18 19 20 21 22 23 24 25 26 27 28 29 30 31 32 33 34 35 36 37 38 39 40 41 42 43 44 45 46 47 48 49 50

000
ASUS45 KBOI 271710
RWRID

IDAHO REGIONAL WEATHER ROUNDUP
NATIONAL WEATHER SERVICE BOISE ID
1100 AM MDT MON MAR 27 2017

NOTE: "FAIR" INDICATES FEW OR NO CLOUDS BELOW 12000 FEET
WITH NO SIGNIFICANT WEATHER AND/OR OBSTRUCTIONS TO VISIBILITY

IDZ012-014-271800-
SOUTHWEST IDAHO


CITY           SKY/WX    TMP DP  RH WIND       PRES   REMARKS
BOISE          PTSUNNY   45  39  79 W13       30.00R
CALDWELL       MOSUNNY   47  38  71 W12       30.02R
$$

IDZ016-017-271800-
SOUTHCENTRAL IDAHO


CITY           SKY/WX    TMP DP  RH WIND       PRES   REMARKS
BURLEY         LGT RAIN  43  36  76 W12G18    29.93R
JEROME         CLOUDY    43  40  89 SW14      29.95R
TWIN FALLS     CLOUDY    43  37  79 W20       29.95R
$$

IDZ019>023-271800-
SOUTHEAST IDAHO


CITY           SKY/WX    TMP DP  RH WIND       PRES   REMARKS
IDAHO FALLS    LGT RAIN  42  39  89 SW9       29.91R
POCATELLO      CLOUDY    40  38  93 SW14      29.93R WCI  32
REXBURG        CLOUDY    44  35  70 S8        29.90R
$$

IDZ006-010-011-018-031-032-271800-
CENTRAL IDAHO MOUNTAINS


CITY           SKY/WX    TMP DP  RH WIND       PRES   REMARKS
MCCALL         FLURRIES  35  30  82 NW6       29.94R WCI  30
HAILEY         PTSUNNY   39  37  93 SE8       29.92R WCI  34
STANLEY          N/A     36  30  79 N3        29.91R
SALMON         CLOUDY    45  32  61 NW3       29.88S
CHALLIS        PTSUNNY   43  30  60 CALM      29.88S
$$

IDZ002-004-006-007-026-271800-
NORTHERN IDAHO


CITY           SKY/WX    TMP DP  RH WIND       PRES   REMARKS
LEWISTON       CLOUDY    50  37  61 CALM      30.02R
LOWELL         NOT AVBL
COEUR D`ALENE  CLOUDY    43  40  89 SW14      29.97R
MULLAN PASS    SNOW      29  29 100 CALM      29.88R VSB 1/4
$$



USA.gov is the U.S. government's official web portal to all federal, state and local government web resources and services.